EW2781 Weather Reports


time (UTC)temp
F
wind
direction
speed
knots
gust
knots
rain 1hr
in
rain 24hr
in
rain mn
in
humidity
%
barometer
mb
20260506113051 67 276 0.0 2.6 0.00 0.00 0.00 90 1016.1
20260506111555 64 267 0.0 0.0 0.00 0.00 0.00 94 1015.8
20260506110105 64 321 0.0 0.0 0.00 0.00 0.00 94 1015.7
20260506104504 63 299 0.0 0.0 0.00 0.00 0.00 94 1015.7
20260506103013 63 290 0.0 0.0 0.00 0.00 0.00 93 1015.5
20260506101513 64 285 0.0 0.0 0.00 0.00 0.00 93 1015.5
20260506100021 65 281 0.0 0.0 0.00 0.00 0.00 92 1015.6
20260506094546 65 295 0.0 0.0 0.00 0.00 0.00 92 1015.6
20260506093046 65 302 0.0 0.0 0.00 0.00 0.00 93 1015.7
20260506091548 65 273 0.0 0.0 0.00 0.00 0.00 93 1015.5
20260506090053 66 240 0.0 0.0 0.00 0.00 0.00 93 1015.3
20260506084559 66 227 0.0 0.0 0.00 0.00 0.00 93 1015.2
20260506083010 67 101 0.0 0.0 0.00 0.00 0.00 92 1015.3
20260506081523 67 82 0.0 0.0 0.00 0.00 0.00 92 1015.2
20260506073048 67 165 0.0 0.0 0.00 0.00 0.00 90 1015.3
20260506071606 67 198 0.0 0.0 0.00 0.00 0.00 91 1015.3
20260506061503 66 143 0.0 0.0 0.00 0.00 0.00 93 1015.6
20260506044526 66 117 0.0 0.0 0.00 0.00 0.00 90 1016.6
20260506043029 67 117 0.0 0.0 0.00 0.00 0.00 89 1016.5
20260506041556 67 120 0.0 0.0 0.00 0.00 0.00 89 1016.4
20260506040047 67 131 0.0 0.0 0.00 0.00 0.00 88 1016.6
20260506034555 68 120 0.0 0.0 0.00 0.00 0.00 88 1016.7
20260506033112 68 125 0.0 0.0 0.00 0.00 0.00 87 1016.8
20260506031516 68 133 0.0 0.0 0.00 0.00 0.00 86 1017.0
20260506030013 68 110 0.0 1.7 0.00 0.00 0.00 86 1017.0
20260506024515 68 132 0.0 1.7 0.00 0.00 0.00 86 1016.9
20260506023022 68 149 0.0 1.7 0.00 0.00 0.00 85 1017.0
20260506021528 68 130 0.9 1.7 0.00 0.00 0.00 85 1016.8
20260506020032 68 127 0.0 1.7 0.00 0.00 0.00 85 1016.7
20260506014547 69 126 0.0 5.2 0.00 0.00 0.00 84 1016.8
20260506013045 69 121 0.0 2.6 0.00 0.00 0.00 83 1016.7
20260506011542 69 110 0.9 3.5 0.00 0.00 0.00 82 1016.6
20260506010044 69 152 0.0 3.5 0.00 0.00 0.00 82 1016.6
20260506004548 69 141 0.0 4.3 0.00 0.00 0.00 81 1016.6
20260506003050 69 150 0.9 3.5 0.00 0.00 0.00 81 1016.6
20260506001609 69 130 0.9 5.2 0.00 0.00 0.00 80 1016.7
20260506000055 70 140 1.7 3.5 0.00 0.00 0.00 80 1016.6
20260505234559 70 127 0.9 7.0 0.00 0.00 0.00 80 1016.5
20260505233001 70 136 0.9 7.0 0.00 0.00 0.00 78 1016.5
20260505231508 71 132 0.9 5.2 0.00 0.00 0.00 78 1016.4
20260505230015 72 113 1.7 3.5 0.00 0.00 0.00 77 1016.5
20260505224535 72 136 0.9 4.3 0.00 0.00 0.00 77 1016.5
20260505223040 72 130 1.7 5.2 0.00 0.00 0.00 75 1016.7
20260505221550 72 131 2.6 4.3 0.00 0.00 0.00 74 1016.7
20260505220050 72 103 1.7 4.3 0.00 0.00 0.00 75 1016.8
20260505214601 73 143 1.7 5.2 0.00 0.00 0.00 74 1016.7
20260505213100 73 137 2.6 5.2 0.00 0.00 0.00 73 1016.6
20260505211506 74 117 2.6 5.2 0.00 0.00 0.00 72 1016.8
20260505210009 74 128 2.6 6.1 0.00 0.00 0.00 71 1016.8
20260505204523 74 145 2.6 6.1 0.00 0.00 0.00 71 1016.9
20260505203021 74 121 1.7 7.0 0.00 0.00 0.00 71 1017.0
20260505201541 74 126 2.6 6.1 0.00 0.00 0.00 70 1016.9
20260505200029 74 103 1.7 7.0 0.00 0.00 0.00 71 1017.1
20260505194534 75 215 2.6 6.1 0.00 0.00 0.00 70 1017.3
20260505193046 75 125 1.7 7.0 0.00 0.00 0.00 69 1017.4
20260505191555 75 128 0.9 5.2 0.00 0.00 0.00 71 1017.5
20260505190104 75 139 1.7 6.1 0.00 0.00 0.00 69 1017.8
20260505184605 75 103 2.6 6.1 0.00 0.00 0.00 69 1017.8
20260505183059 75 150 2.6 5.2 0.00 0.00 0.00 68 1017.7
20260505181502 75 101 1.7 5.2 0.00 0.00 0.00 69 1017.8
20260505180004 75 87 0.9 6.1 0.00 0.00 0.00 69 1017.9
20260505174527 75 97 2.6 7.0 0.00 0.00 0.00 69 1018.0
20260505173038 76 120 1.7 5.2 0.00 0.00 0.00 67 1018.2
20260505171541 76 139 1.7 5.2 0.00 0.00 0.00 69 1018.4
20260505170043 76 117 2.6 5.2 0.00 0.00 0.00 69 1018.4
20260505164545 75 154 1.7 6.1 0.00 0.00 0.00 69 1018.6
20260505163041 74 136 2.6 6.1 0.00 0.00 0.00 69 1018.6
20260505161539 74 120 2.6 7.0 0.00 0.00 0.00 68 1018.7
20260505153103 74 149 1.7 4.3 0.00 0.00 0.00 72 1018.8
20260505151552 74 127 1.7 5.2 0.00 0.00 0.00 72 1018.7
20260505150113 74 141 1.7 4.3 0.00 0.00 0.00 71 1018.7
20260505124553 71 138 0.0 1.7 0.00 0.00 0.00 77 1018.2
20260505121601 70 94 0.0 0.9 0.00 0.00 0.00 79 1018.1
20260505120000 67 224 0.0 0.0 0.00 0.00 0.00 92 1018.0
20260505114503 61 225 0.0 0.0 0.00 0.00 0.00 95 1017.8